Location: All Nations United Methodist Church
(33.0215°N, 96.7483°W)
Time: 14:28:55
(UTC+00:00)

NOSS 3-2 (A) - Pass Details

Date: 24 January 2021
Orbit: 783 x 1425 km, 63.4° (Epoch: 03 March)

Event Time Altitude Azimuth Distance (km) Brightness Sun altitude
Exits shadow 12:29:55 - 233° (SW) 3,260 5.9 -12.1°
Reaches altitude 10° 12:32:22 10° 241° (WSW) 2,391 5.1 -11.6°
Maximum altitude 12:37:23 37° 309° (NW) 1,327 3.8 -10.6°
Drops below altitude 10° 12:43:00 10° 15° (NNE) 2,677 5.8 -9.5°
Sets 12:45:58 0° 24° (NNE) 3,730 6.6 -8.9°
